Preview of NWS' New Version of Forecast
This preview is not operational and should not be used for support decisions.

Terminal Aerodrome Forecast (TAF)

Issued by National Weather Service (NWS)

                            
000
FTUS42 KKEY 240537
TAFEYW
TAF
KEYW 240537Z 2406/2506 14006KT P6SM FEW020=